Date String (YYYY-MM-DD hh:mm:ss) UTC,Instrument flags,absolute air pressure of the measurement (hPa),sample flow rate (lpm),inlet stack bypass flow (lpm),air temperature of the measurement (°C),ambient temperature measured by the external sensor (°C),aerosol sample conditioner tube jacket temperature (°C),OPC LED temperature (°C),internal box temperature (°C),relative humidity of the measurement (%),span deviation,mass concentration of particles derived from Lorenz-Mie calculation of OPC scattering (μg/m³),mass concentration of particles derived from Lorenz-Mie calculation of OPC scattering (μg/m³),mass concentration of particles derived from Lorenz-Mie calculation of OPC scattering (μg/m³)
DateTimeUTC,F1_M11,P_M11,Q1_M11,Q2_M11,T1_M11,T2_M11,T3_M11,T4_M11,T5_M11,U1_M11,ZSPAN_M11,X2_M11,X0_M11,X1_M11
2023-08-19 08:00:00,SystemResetWarning,0831.2,5.00,000.00,028.1,024.9,000.0,036.5,029.5,28.7,0000.0,0001.92,0003.19,0001.53
2023-08-19 08:01:00,SystemResetWarning,0831.2,5.00,000.00,028.1,025.3,000.0,036.5,029.6,28.7,0000.0,0001.95,0003.33,0001.53
2023-08-19 08:02:00,SystemResetWarning,0831.2,5.01,000.00,028.1,025.6,000.0,036.5,029.7,28.7,0000.0,0001.91,0003.35,0001.51
2023-08-19 08:03:00,SystemResetWarning,0831.3,4.99,000.00,028.1,026.0,000.0,036.6,029.7,28.8,0000.0,0001.89,0003.24,0001.51
2023-08-19 08:04:00,SystemResetWarning,0831.2,5.00,000.00,028.1,026.2,000.0,036.6,029.8,28.8,0000.0,0001.87,0002.95,0001.50
2023-08-19 08:05:00,SystemResetWarning,0831.3,5.00,000.00,028.1,026.5,000.0,036.6,029.9,28.8,0000.0,0001.85,0002.91,0001.47
2023-08-19 08:06:00,SystemResetWarning,0831.3,4.99,000.00,028.2,026.7,000.0,036.6,029.9,28.8,0000.0,0001.86,0002.93,0001.46
2023-08-19 08:07:00,SystemResetWarning,0831.3,4.99,000.00,028.2,026.8,000.0,036.6,030.0,28.8,0000.0,0001.84,0002.91,0001.44
2023-08-19 08:08:00,SystemResetWarning,0831.3,4.99,000.00,028.3,027.0,000.0,036.7,030.0,28.7,0000.0,0001.80,0002.86,0001.43
2023-08-19 08:09:00,SystemResetWarning,0831.3,5.00,000.00,028.3,027.1,000.0,036.7,030.1,28.6,0000.0,0001.79,0002.73,0001.43
2023-08-19 08:10:00,SystemResetWarning,0831.3,5.00,000.00,028.3,027.2,000.0,036.7,030.1,28.6,0000.0,0001.82,0002.80,0001.44
2023-08-19 08:11:00,SystemResetWarning,0831.3,5.00,000.00,028.4,027.2,000.0,036.7,030.1,28.4,0000.0,0001.83,0002.85,0001.43
2023-08-19 08:12:00,SystemResetWarning,0831.3,4.99,000.00,028.4,025.9,000.0,036.6,030.0,28.3,0000.0,0001.82,0002.80,0001.43
2023-08-19 08:13:00,SystemResetWarning,0831.2,5.01,000.00,028.3,024.8,000.0,036.6,029.8,28.4,0000.0,0001.83,0002.77,0001.44
2023-08-19 08:14:00,SystemResetWarning,0831.3,5.01,000.00,028.2,024.8,000.0,036.5,029.6,28.5,0000.0,0001.85,0002.73,0001.44
2023-08-19 08:15:00,SystemResetWarning,0831.3,5.00,000.00,028.2,025.1,000.0,036.6,029.6,28.6,0000.0,0001.86,0002.75,0001.45
2023-08-19 08:16:00,SystemResetWarning,0831.2,5.00,000.00,028.2,025.4,000.0,036.6,029.6,28.7,0000.0,0001.89,0002.80,0001.47
2023-08-19 08:17:00,SystemResetWarning,0831.3,5.00,000.00,028.2,025.8,000.0,036.6,029.7,28.8,0000.0,0001.88,0002.79,0001.48
2023-08-19 08:18:00,SystemResetWarning,0831.2,5.00,000.00,028.2,026.1,000.0,036.7,029.8,28.7,0000.0,0001.88,0002.77,0001.50
2023-08-19 08:19:00,SystemResetWarning,0831.3,5.00,000.00,028.2,026.4,000.0,036.7,029.9,28.7,0000.0,0001.94,0002.98,0001.53
2023-08-19 08:20:00,SystemResetWarning,0831.3,4.99,000.00,028.2,026.6,000.0,036.7,030.0,28.8,0000.0,0001.97,0002.97,0001.56
2023-08-19 08:21:00,SystemResetWarning,0831.3,4.99,000.00,028.3,026.8,000.0,036.7,030.0,28.9,0000.0,0001.99,0002.99,0001.58
2023-08-19 08:22:00,SystemResetWarning,0831.2,4.99,000.00,028.3,026.9,000.0,036.7,030.1,28.6,0000.0,0002.01,0002.98,0001.61
2023-08-19 08:23:00,SystemResetWarning,0831.3,5.00,000.00,028.3,027.1,000.0,036.8,030.1,28.5,0000.0,0002.05,0003.07,0001.63
2023-08-19 08:24:00,SystemResetWarning,0831.3,5.01,000.00,028.4,027.2,000.0,036.8,030.1,28.4,0000.0,0002.06,0003.11,0001.64
2023-08-19 08:25:00,SystemResetWarning,0831.3,5.01,000.00,028.4,027.1,000.0,036.8,030.2,28.3,0000.0,0002.09,0003.20,0001.66
2023-08-19 08:26:00,SystemResetWarning,0831.3,4.98,000.00,028.4,025.6,000.0,036.7,029.9,28.2,0000.0,0002.13,0003.33,0001.68
2023-08-19 08:27:00,SystemResetWarning,0831.3,5.01,000.00,028.3,024.1,000.0,036.6,029.5,28.2,0000.0,0002.15,0003.30,0001.70
2023-08-19 08:28:00,SystemResetWarning,0831.3,5.01,000.00,028.2,023.9,000.0,036.5,029.4,28.3,0000.0,0002.21,0003.41,0001.73
2023-08-19 08:29:00,SystemResetWarning,0831.2,5.00,000.00,028.1,024.1,000.0,036.5,029.3,28.7,0000.0,0002.26,0003.53,0001.74
2023-08-19 08:30:00,SystemResetWarning,0831.3,5.00,000.00,028.0,024.6,000.0,036.6,029.4,29.1,0000.0,0002.26,0003.44,0001.75
2023-08-19 08:31:00,SystemResetWarning,0831.3,5.01,000.00,028.0,025.0,000.0,036.6,029.5,29.1,0000.0,0002.26,0003.58,0001.76
2023-08-19 08:32:00,SystemResetWarning,0831.3,5.00,000.00,028.0,025.4,000.0,036.6,029.6,29.1,0000.0,0002.28,0003.67,0001.77
2023-08-19 08:33:00,SystemResetWarning,0831.3,5.00,000.00,028.0,025.8,000.0,036.6,029.7,29.2,0000.0,0002.29,0004.51,0001.78
2023-08-19 08:34:00,SystemResetWarning,0831.3,5.00,000.00,028.1,026.1,000.0,036.6,029.8,29.1,0000.0,0002.31,0004.50,0001.79
2023-08-19 08:35:00,SystemResetWarning,0831.3,5.01,000.00,028.1,026.4,000.0,036.6,029.8,28.9,0000.0,0002.32,0004.71,0001.80
2023-08-19 08:36:00,SystemResetWarning,0831.3,5.00,000.00,028.1,026.6,000.0,036.6,029.9,28.9,0000.0,0002.31,0004.79,0001.80
2023-08-19 08:37:00,SystemResetWarning,0831.3,4.99,000.00,028.2,026.7,000.0,036.6,029.9,28.8,0000.0,0002.29,0004.68,0001.80
2023-08-19 08:38:00,SystemResetWarning,0831.3,5.01,000.00,028.2,026.9,000.0,036.6,030.0,28.6,0000.0,0002.29,0005.01,0001.80
2023-08-19 08:39:00,SystemResetWarning,0831.3,5.00,000.00,028.2,027.0,000.0,036.7,030.0,28.5,0000.0,0002.30,0005.99,0001.79
2023-08-19 08:40:00,SystemResetWarning,0831.4,5.01,000.00,028.3,027.1,000.0,036.7,030.1,28.0,0000.0,0002.27,0005.95,0001.78
2023-08-19 08:41:00,SystemResetWarning,0831.4,5.00,000.00,028.3,027.2,000.0,036.7,030.1,28.1,0000.0,0002.27,0005.95,0001.78
2023-08-19 08:42:00,SystemResetWarning,0831.4,5.00,000.00,028.4,027.2,000.0,036.7,030.2,27.8,0000.0,0002.29,0005.80,0001.77
2023-08-19 08:43:00,SystemResetWarning,0831.3,4.98,000.00,028.4,025.8,000.0,036.7,029.9,28.0,0000.0,0002.28,0005.78,0001.76
2023-08-19 08:44:00,SystemResetWarning,0831.3,5.01,000.00,028.3,024.2,000.0,036.5,029.6,28.1,0000.0,0002.30,0005.03,0001.74
2023-08-19 08:45:00,SystemResetWarning,0831.3,5.01,000.00,028.2,023.8,000.0,036.5,029.5,28.2,0000.0,0002.31,0005.06,0001.73
2023-08-19 08:46:00,SystemResetWarning,0831.3,5.00,000.00,028.1,024.1,000.0,036.5,029.3,28.2,0000.0,0002.28,0004.85,0001.72
2023-08-19 08:47:00,SystemResetWarning,0831.3,5.00,000.00,028.0,024.5,000.0,036.5,029.4,28.3,0000.0,0002.29,0004.66,0001.71
2023-08-19 08:48:00,SystemResetWarning,0831.3,5.00,000.00,028.0,025.0,000.0,036.5,029.5,28.4,0000.0,0002.31,0004.69,0001.71
2023-08-19 08:49:00,SystemResetWarning,0831.3,5.00,000.00,028.0,025.4,000.0,036.5,029.6,28.3,0000.0,0002.29,0004.61,0001.71
2023-08-19 08:50:00,SystemResetWarning,0831.3,5.00,000.00,028.0,025.8,000.0,036.5,029.7,28.3,0000.0,0002.27,0003.45,0001.71
2023-08-19 08:51:00,SystemResetWarning,0831.3,4.99,000.00,028.1,026.1,000.0,036.6,029.7,28.2,0000.0,0002.32,0003.58,0001.72
2023-08-19 08:52:00,SystemResetWarning,0831.3,5.00,000.00,028.1,026.3,000.0,036.6,029.8,28.6,0000.0,0002.32,0003.54,0001.72
2023-08-19 08:53:00,SystemResetWarning,0831.4,5.00,000.00,028.1,026.6,000.0,036.6,029.9,29.0,0000.0,0002.31,0003.60,0001.72
2023-08-19 08:54:00,SystemResetWarning,0831.4,5.01,000.00,028.2,026.7,000.0,036.6,029.9,29.2,0000.0,0002.29,0003.55,0001.73
2023-08-19 08:55:00,SystemResetWarning,0831.4,5.00,000.00,028.2,026.9,000.0,036.6,030.0,28.8,0000.0,0002.29,0003.58,0001.74
2023-08-19 08:56:00,SystemResetWarning,0831.4,4.99,000.00,028.3,027.0,000.0,036.7,030.0,28.5,0000.0,0002.23,0003.39,0001.75
2023-08-19 08:57:00,SystemResetWarning,0831.4,5.00,000.00,028.3,027.1,000.0,036.7,030.1,28.3,0000.0,0002.26,0003.48,0001.75
2023-08-19 08:58:00,SystemResetWarning,0831.4,5.00,000.00,028.3,027.3,000.0,036.7,030.1,28.0,0000.0,0002.31,0003.58,0001.76
2023-08-19 08:59:00,SystemResetWarning,0831.4,5.00,000.00,028.4,027.3,000.0,036.7,030.2,27.9,0000.0,0002.34,0004.13,0001.78
